TimeCDT,TemperatureF,Dew PointF,Humidity,Sea Level PressureIn,VisibilityMPH,Wind Direction,Wind SpeedMPH,Gust SpeedMPH,PrecipitationIn,Events,Conditions,WindDirDegrees,DateUTC
12:52 AM,28.9,24.1,82,30.38,10.0,Calm,Calm,-,N/A,,Clear,0,2013-03-27 05:52:00
1:52 AM,27.0,23.0,85,30.38,10.0,Calm,Calm,-,N/A,,Clear,0,2013-03-27 06:52:00
2:52 AM,27.0,21.9,81,30.38,10.0,Calm,Calm,-,N/A,,Clear,0,2013-03-27 07:52:00
3:52 AM,26.1,21.9,84,30.38,10.0,Calm,Calm,-,N/A,,Clear,0,2013-03-27 08:52:00
4:52 AM,25.0,21.0,85,30.37,8.0,Calm,Calm,-,N/A,,Clear,0,2013-03-27 09:52:00
5:52 AM,24.1,19.9,84,30.38,8.0,Calm,Calm,-,N/A,,Clear,0,2013-03-27 10:52:00
6:52 AM,24.1,19.9,84,30.40,10.0,SW,3.5,-,N/A,,Clear,220,2013-03-27 11:52:00
7:52 AM,27.0,24.1,89,30.41,9.0,Calm,Calm,-,N/A,,Partly Cloudy,0,2013-03-27 12:52:00
8:52 AM,34.0,27.0,75,30.42,10.0,WSW,3.5,-,N/A,,Clear,240,2013-03-27 13:52:00
9:52 AM,41.0,26.1,55,30.43,10.0,Calm,Calm,-,N/A,,Partly Cloudy,0,2013-03-27 14:52:00
11:52 AM,45.0,24.1,44,30.41,10.0,West,6.9,-,N/A,,Scattered Clouds,260,2013-03-27 16:52:00
12:52 PM,46.0,24.1,42,30.41,10.0,West,5.8,-,N/A,,Scattered Clouds,270,2013-03-27 17:52:00
1:52 PM,48.0,26.1,42,30.39,10.0,Variable,4.6,-,N/A,,Scattered Clouds,0,2013-03-27 18:52:00
2:52 PM,48.9,27.0,43,30.36,10.0,Calm,Calm,-,N/A,,Scattered Clouds,0,2013-03-27 19:52:00
3:52 PM,51.1,25.0,36,30.34,10.0,Calm,Calm,-,N/A,,Scattered Clouds,0,2013-03-27 20:52:00
4:52 PM,50.0,26.1,39,30.33,10.0,Calm,Calm,-,N/A,,Mostly Cloudy,0,2013-03-27 21:52:00
5:52 PM,50.0,25.0,38,30.32,10.0,North,-9999.0,-,N/A,,Mostly Cloudy,0,2013-03-27 22:52:00
6:52 PM,48.9,30.0,48,30.32,10.0,NE,3.5,-,N/A,,Scattered Clouds,50,2013-03-27 23:52:00
7:52 PM,48.0,30.9,52,30.32,10.0,East,3.5,-,N/A,,Mostly Cloudy,80,2013-03-28 00:52:00
8:52 PM,45.0,30.0,56,30.32,10.0,NE,3.5,-,N/A,,Scattered Clouds,50,2013-03-28 01:52:00
9:52 PM,44.1,30.0,58,30.34,10.0,East,4.6,-,N/A,,Overcast,80,2013-03-28 02:52:00
10:52 PM,43.0,30.9,62,30.34,10.0,ESE,4.6,-,N/A,,Clear,110,2013-03-28 03:52:00
11:52 PM,44.1,30.9,60,30.35,10.0,East,3.5,-,N/A,,Overcast,90,2013-03-28 04:52:00